Location: Burzi?i
(45.0869°N, 16.0577°E)
Time: 04:26:35
(UTC+00:00)

FALCON 9 DEB - Pass Details

Date: 29 October 2020
Orbit: 382 x 396 km, 53.0° (Epoch: 01 December)

Event Time Altitude Azimuth Distance (km) Brightness Sun altitude
Rises 16:23:25 0° 248° (WSW) 2,312 9.1 -6.9°
Reaches altitude 10° 16:25:32 10° 253° (WSW) 1,454 7.6 -7.3°
Maximum altitude 16:28:43 53° 332° (NNW) 499 3.5 -7.8°
Drops below altitude 10° 16:31:56 10° 51° (NE) 1,454 5.2 -8.4°
Enters shadow 16:32:04 - 52° (NE) 1,510 5.3 -8.4°
